TimeEDT,TemperatureF,Dew PointF,Humidity,Sea Level PressureIn,VisibilityMPH,Wind Direction,Wind SpeedMPH,Gust SpeedMPH,PrecipitationIn,Events,Conditions,WindDirDegrees,DateUTC
12:54 AM,55.0,51.1,86,30.17,10.0,Calm,Calm,-,N/A,,Clear,0,2013-06-21 04:54:00
1:54 AM,53.1,51.1,93,30.17,10.0,Calm,Calm,-,N/A,,Clear,0,2013-06-21 05:54:00
2:54 AM,55.0,52.0,89,30.16,10.0,Calm,Calm,-,N/A,,Clear,0,2013-06-21 06:54:00
3:54 AM,57.0,52.0,83,30.14,10.0,Calm,Calm,-,N/A,,Scattered Clouds,0,2013-06-21 07:54:00
4:54 AM,57.0,53.1,87,30.14,10.0,Calm,Calm,-,N/A,,Partly Cloudy,0,2013-06-21 08:54:00
5:54 AM,54.0,52.0,93,30.14,10.0,Calm,Calm,-,N/A,,Partly Cloudy,0,2013-06-21 09:54:00
6:54 AM,57.0,53.1,87,30.15,10.0,Calm,Calm,-,N/A,,Partly Cloudy,0,2013-06-21 10:54:00
7:54 AM,60.1,54.0,80,30.14,10.0,Calm,Calm,-,N/A,,Overcast,0,2013-06-21 11:54:00
8:54 AM,62.1,55.9,80,30.13,10.0,Calm,Calm,-,N/A,,Overcast,0,2013-06-21 12:54:00
9:54 AM,64.0,57.0,78,30.13,10.0,Calm,Calm,-,N/A,,Overcast,0,2013-06-21 13:54:00
10:54 AM,68.0,57.0,68,30.11,10.0,SE,5.8,-,N/A,,Partly Cloudy,140,2013-06-21 14:54:00
11:54 AM,70.0,57.9,65,30.10,10.0,SE,5.8,-,N/A,,Overcast,130,2013-06-21 15:54:00
12:54 PM,75.0,60.1,60,30.08,10.0,SSE,8.1,-,N/A,,Partly Cloudy,150,2013-06-21 16:54:00
1:54 PM,80.1,62.1,54,30.04,10.0,ESE,8.1,-,N/A,,Clear,120,2013-06-21 17:54:00
2:54 PM,82.0,63.0,52,30.02,10.0,SE,9.2,-,N/A,,Clear,140,2013-06-21 18:54:00
3:54 PM,78.1,66.0,66,30.01,10.0,East,4.6,-,0.00,Rain,Light Rain,80,2013-06-21 19:54:00
4:54 PM,73.0,64.9,76,29.98,10.0,ENE,8.1,-,0.00,,Overcast,70,2013-06-21 20:54:00
5:54 PM,73.9,64.9,73,29.95,10.0,East,8.1,-,N/A,,Mostly Cloudy,100,2013-06-21 21:54:00
6:54 PM,75.9,64.9,69,29.93,10.0,ESE,6.9,-,0.00,Rain,Light Rain,120,2013-06-21 22:54:00
7:54 PM,71.1,63.0,75,29.96,7.0,WNW,11.5,-,0.02,Rain,Light Rain,300,2013-06-21 23:54:00
8:54 PM,66.0,61.0,84,29.96,9.0,NW,5.8,-,0.00,,Clear,310,2013-06-22 00:54:00
9:54 PM,71.1,59.0,66,29.96,10.0,WSW,8.1,-,N/A,,Scattered Clouds,250,2013-06-22 01:54:00
10:54 PM,73.0,59.0,61,29.97,10.0,SW,8.1,-,N/A,,Overcast,230,2013-06-22 02:54:00
11:54 PM,66.9,62.1,84,29.97,7.0,WSW,3.5,-,0.02,Rain,Light Rain,240,2013-06-22 03:54:00